Location: Igri�s
(42.2144°N, 0.4320°W)
Time: 03:40:19
(UTC+00:00)

Okean 1-7 - Visible Passes

Search period start: 25 November 2020 00:00
Search period end: 05 December 2020 00:00
Orbit: 591 x 618 km, 82.5° (Epoch: 24 November)

Date Brightness Start Highest point End Pass type
(mag) Time Alt. Az. Time Alt. Az. Time Alt. Az.
29 Nov 6.1 06:18:22 10° ENE 06:19:07 10° ENE 06:19:52 10° ENE visible
30 Nov 5.7 06:29:22 10° NNE 06:32:12 17° ENE 06:35:00 10° ESE visible
04 Dec 6.0 05:44:12 10° NE 05:45:45 12° ENE 05:47:18 10° E visible
